Location: ?
(35.4064°N, 139.3593°E)
Time: 18:36:18
(UTC+00:00)

ACS3 Solar Sail - Pass Details

Date: 24 June 2024
Orbit: 992 x 1023 km, 97.4° (Epoch: 14 July)

Event Time Altitude Azimuth Distance (km) Brightness Sun altitude
Exits shadow 11:53:11 30° 138° (SE) 1,704 5.5 -18.5°
Maximum altitude 11:56:11 57° 74° (ENE) 1,164 5.0 -18.9°
Drops below altitude 10° 12:02:15 10° 358° (N) 2,764 7.9 -19.7°
Sets 12:04:46 0° 354° (N) 3,715 8.8 -20.0°
